Location: Gombori
(14.9797°N, 2.9419°W)
Time: 19:35:05
(UTC+00:00)

USA 32 - Visible Passes

Search period start: 07 December 2021 00:00
Search period end: 17 December 2021 00:00
Orbit: 776 x 783 km, 85.0° (Epoch: 06 December)

Date Brightness Start Highest point End Pass type
(mag) Time Alt. Az. Time Alt. Az. Time Alt. Az.
07 Dec 7.0 05:22:25 10° ENE 05:24:44 13° E 05:27:01 10° ESE visible
07 Dec 4.7 18:02:39 10° SSE 18:07:18 33° E 18:11:57 10° NNE visible
07 Dec 6.8 19:45:18 10° WSW 19:48:06 15° W 19:50:55 10° NW visible
08 Dec 5.9 19:10:35 10° SSW 19:15:07 30° W 19:19:40 10° NNW visible
09 Dec 5.2 05:54:49 10° NNE 05:59:52 48° E 06:04:53 10° SSE visible
09 Dec 4.5 18:37:03 10° S 18:42:12 64° W 18:47:22 10° N visible
10 Dec 6.5 05:22:48 10° NNE 05:26:54 23° E 05:31:00 10° SE visible
10 Dec 4.1 18:04:12 10° S 18:09:20 60° E 18:14:28 10° N visible
11 Dec 7.2 04:52:46 10° ENE 04:53:54 11° E 04:55:02 10° E visible
11 Dec 6.8 19:13:56 10° SW 19:17:17 17° W 19:20:38 10° NW visible
12 Dec 4.1 05:56:42 10° N 06:01:57 86° E 06:07:12 10° S visible
12 Dec 5.7 18:39:34 10° SSW 18:44:19 35° W 18:49:04 10° NNW visible
13 Dec 5.4 05:24:09 10° NNE 05:29:03 41° E 05:33:57 10° SSE visible
13 Dec 4.3 18:06:12 10° S 18:11:24 76° W 18:16:37 10° N visible
14 Dec 6.6 04:52:20 10° NE 04:56:06 20° E 04:59:50 10° SE visible
15 Dec 4.2 05:58:55 10° NNW 06:04:00 53° W 06:09:06 10° SSW visible
15 Dec 6.7 18:42:41 10° SW 18:46:27 20° W 18:50:15 10° NW visible
16 Dec 4.3 05:25:55 10° N 05:31:10 74° E 05:36:23 10° S visible
16 Dec 5.5 18:08:36 10° SSW 18:13:30 42° W 18:18:24 10° NNW visible
